www.pogodaiklimat.ru

Погода и климат >> Архив погоды >> Россия >> Камчатский край >> Козыревск


ПОГОДА в Козыревске

  • Прогноз погоды в Козыревске
  • Монитор погоды в Козыревске

АРХИВ ПОГОДЫ в Козыревске

Время (UTC), дата Ветер
(напр.,м/с)
 
Видим.   Явления Облачность Т
(С)
Тd
(С)
f
(%)
Тe
(С)
Тes
(С)
Комфортность P
(гПа)
Po
(гПа)
Тmin
(С)
Tmax
(С)
R
(мм)
R24
(мм)
S
(см)
21 19.03 С 6-11
{13}
10 км слаб. снег {метель} 10/0
[As op]
-15.6 -18.5 78 -25 -25 1005.8 1000.5 -15.7 0.9 113
00 20.03 С 7-14
{16}
10 км слаб. снег {метель} 10/0
[As op]
-14.4 -17.7 76 -25 -24 1004.9 999.6
03 20.03 С 8-14
{16}
10 км слаб. снег {метель} 10/0
[As op]
-12.4 -16.6 71 -23 -22 1002.4 997.1
06 20.03 С 9-15
{18}
50 км позёмок {снег} 10/8 600 м
[Sc As op]
-13.2 -16.8 74 -24 -24 1001.7 996.4
09 20.03 СВ 8-14
{18}
50 км позёмок 10/8 600 м
[Sc As op]
-13.8 -17.1 76 -24 -24 1004.0 998.7 -11.3 0.9
12 20.03 С 5
{15}
20 км позёмок 10/6 600 м
[Sc As op]
-12.8 -17.5 68 -21 -21 1003.1 997.9
15 20.03 СЗ 3
{12}
20 км {метель} 10/6 600 м
[Sc As op]
-13.9 -16.8 79 -20 -20 1002.8 997.6
18 20.03 Ю 1 50 км {метель} 10/5 600 м
[Sc As op]
-14.2 -16.3 84 -17 -17 1002.6 997.3
21 20.03 Ю 2
{15}
50 км в посл. час снег 10/5 600 м
[Sc As op]
-13.5 -16.3 79 -18 -18 1001.7 996.5 -14.3 0.4 114
00 21.03 Ю 3 50 км {снег} 5/5 1000 м
[Sc]
-9.8 -15.4 64 -16 -13 1000.7 995.5
03 21.03 Ю 3 50 км 5/0
[Ac und]
-7.9 -14.5 59 -13 -11 1001.1 996.0
06 21.03 ЮВ 2 50 км 10/0
[Ac As]
-8.0 -13.0 67 -12 -12 1002.5 997.3
09 21.03 ЮВ 1
{7}
50 км 8/0
[Ac trans]
-9.9 -12.8 79 -12 -12 1005.2 1000.0 -6.9
12 21.03 ЮВ 1 50 км 5/0
[Ac trans]
-17.4 -19.3 85 -20 -20 1008.1 1002.7
15 21.03 штиль 0 20 км 9/0
[Ci fib]
-15.5 -17.6 84 -16 -16 1009.3 1004.0
18 21.03 ЮВ 1 10 км слаб. снег 10/0
[As op]
-12.7 -14.5 86 -15 -15 1012.0 1006.7
21 21.03 штиль 0
{2}
50 км {снег} 5/0
[Ac trans]
-17.1 -19.3 83 -17 -16 1012.4 1007.0 -18.9 0.3 110
00 22.03 СЗ 2 50 км 8/0
[Ac trans Ci fib]
-8.0 -12.9 68 -12 -10 1013.2 1008.0
03 22.03 С 2 50 км 8/0
[Ac trans]
-4.7 -12.6 54 -8 -7 1011.8 1006.7
06 22.03 СЗ 3 20 км слаб. ливневой снег 10/5 600 м
[Cb cap Ac As]
-5.6 -8.3 81 -11 -11 1010.4 1005.3
09 22.03 З 1
{5}
50 км {ливн. осадки} 3/3 600 м
[Sc]
-11.1 -12.3 91 -13 -13 1009.2 1004.0 -4.2 0.0
12 22.03 С 1 50 км {ливн. осадки} 3/3 600 м
[Sc]
-9.6 -10.9 90 -12 -12 1007.9 1002.7
15 22.03 ЮВ 2 50 км 3/3 600 м
[Sc]
-9.9 -11.4 89 -14 -14 1006.5 1001.3
18 22.03 СВ 2 50 км 3/0 600 м
[Sc]
-10.4 -12.0 88 -15 -15 1003.9 998.7
21 22.03 СВ 2
{7}
50 км 4/4 600 м
[Sc]
-11.9 -13.2 90 -16 -16 1000.4 995.1 -16.0 109
00 23.03 ЮЗ 1 50 км 9 баллов -3.3 -6.9 76 -5 -5 998.3 993.3
03 23.03 С 2
{10}
50 км 10/5 600 м
[Sc Ac As]
-0.6 -3.6 80 -4 -4 994.3 989.3
06 23.03 С 5-10
{14}
50 км 9/5 600 м
[Sc Ac trans]
-1.9 -4.4 83 -8 -8 991.7 986.7
09 23.03 С 7-11
{14}
50 км 8/4 600 м
[Sc Ac trans]
-2.9 -5.7 81 -11 -11 990.3 985.3 -0.3
12 23.03 С 7-12
{15}
20 км позёмок 9/5 600 м
[Sc Ac und]
-3.5 -5.4 87 -12 -12 989.2 984.2
15 23.03 С 6-14
{15}
4000 м слаб. ливневой снег {метель} 10/6 600 м
[Cb cap Ac As]
-3.7 -5.6 87 -11 -11 988.6 983.6
18 23.03 С 7-14
{19}
4000 м слаб. ливневой снег {метель} 10/8 600 м
[Cb cap Ac As]
-3.6 -6.3 82 -12 -12 988.9 983.9
21 23.03 С 7-12
{16}
4000 м слаб. ливневой снег {метель} 10/6 600 м
[Cb cap Ac As]
-4.1 -7.6 77 -12 -12 989.6 984.6 -4.1 0.4 110
00 24.03 СВ 7-14
{15}
50 км позёмок {ливн. осадки} 10/5 600 м
[Sc Ac As]
-3.3 -8.5 67 -11 -11 990.2 985.2 -4.2
03 24.03 СВ 7-12
{15}
50 км позёмок 10/4 600 м
[Sc Ac As]
-2.3 -10.1 55 -9 -9 990.1 985.1
06 24.03 СВ 4
{13}
50 км позёмок 6/4 600 м
[Sc Ac trans]
-2.5 -10.2 55 -8 -8 989.6 985.3
09 24.03 З 2
{15}
50 км {метель} 6/4 600 м
[Sc Ac trans]
-6.9 -12.2 66 -11 -11 990.3 985.3 -1.7 0.0
12 24.03 ЮЗ 1 20 км {метель} 8/4 600 м
[Sc Ac trans]
-13.0 -15.1 84 -15 -15 990.3 985.1
15 24.03 штиль 0 50 км 4/4 600 м
[Sc]
-17.3 -18.9 87 -17 -17 990.1 985.3
18 24.03 В 1 50 км 4/4 600 м
[Sc]
-20.8 -23.3 80 -24 -24 989.4 984.0
21 24.03 штиль 0
{3}
50 км 4/4 1000 м
[Sc]
-14.4 -16.4 85 -14 -13 988.9 983.7 -21.7 107
00 25.03 С 3 50 км 5/0
[Ac trans]
-6.8 -15.3 51 -12 -8 988.6 984.0
03 25.03 С 3 50 км 3/0
[Ac trans]
-4.5 -15.8 41 -9 -5 987.8 982.7
06 25.03 С 4 50 км ясно -4.5 -16.0 40 -10 -9 989.0 984.0
09 25.03 С 2
{8}
50 км ясно -8.4 -16.5 52 -13 -13 989.1 984.0 -3.6
12 25.03 З 1 50 км ясно -14.6 -18.8 70 -17 -17 989.2 984.0
15 25.03 ЮВ 1 50 км ясно -17.4 -20.7 75 -20 -20 989.3 984.0
18 25.03 Ю 1 50 км ясно -20.8 -22.9 83 -24 -24 989.3 984.0
21 25.03 штиль 0
{4}
50 км ясно -17.9 -22.6 67 -18 -16 987.4 982.1 -23.3 105
00 26.03 Ю 2 50 км ясно -5.1 -15.7 43 -9 -1 987.7 982.7
03 26.03 З 1 50 км ясно -1.2 -15.4 33 -2 +6 986.2 981.3
06 26.03 В 1 50 км 8/0
[Ci fib]
-2.0 -13.8 40 -3 -3 986.3 981.3
09 26.03 ЮЗ 3
{7}
50 км 8/0
[Ci fib]
-4.9 -15.0 45 -10 -10 989.0 984.0 -0.1
12 26.03 ЮВ 2 50 км 6/0
[Ci fib]
-6.8 -15.0 52 -11 -11 990.4 985.3
15 26.03 ЮВ 2 20 км 6 баллов -6.3 -13.6 56 -10 -10 991.8 986.7
18 26.03 Ю 2 50 км 7 баллов -6.1 -12.8 59 -10 -10 993.1 988.0

 

Местоположение метеостанции Козыревск (Камчатский край, Россия): широта 56.05 долгота 159.80 высота над уровнем моря 40 м.

В архиве по умолчанию представлена погода в Козыревске за последнюю неделю. Архивные данные за месяц целиком и за предыдущие месяцы, начиная с января 2011 года, Вы можете получить, выбрав интересующий диапазон дат из раскрывающегося списка и нажав кнопку "Ввод!".


*Определитесь, кто Вы:
робот инопланетянин человек

Внимание! Время в таблицах - всемирное. Для получения местного времени необходимо прибавить поправку, которая равна 12 ч.

Смотрите также архив погоды в соседних городах и на ближайших метеорологических станциях:

Погода в Ключах (Камчатский край, Россия) (69 км)
Погода в Эссо (Камчатский край, Россия) (70 км)
Погода в Долиновке (Камчатский край, Россия) (115 км)
Погода в Мильково (Камчатский край, Россия) (173 км)
Погода в Усть-Камчатске (Камчатский край, Россия) (181 км)
Погода в Тигиле (Камчатский край, Россия) (203 км)
Погода в Семячике (Камчатский край, Россия) (215 км)
Погода на Мысе Африка (Камчатский край, Россия) (217 км)
Погода в Усть-Хайрюзово (Камчатский край, Россия) (222 км)
Погода в Пущино (Камчатский край, Россия) (237 км)

Пояснения к столбцам:

Ветер - указаны скорость ветра в м/с - средняя за 10 мин, порывы в срок и между сроками (в фигурных скобках) и направление, откуда дует ветер: С - северный, СВ - северо-восточный, В - восточный, ЮВ - юго-восточный, Ю - южный, ЮЗ - юго-западный, З - западный, СЗ - северо-западный.
Видимость - горизонтальная дальность видимости в метрах или километрах. При видимости от 1 до 10 км при отсутствии осадков обычно наблюдается дымка, при ухудшении видимости до 1 км и менее - туман. В сухую погоду видимость может ухудшаться дымом, пылью или мглою.
Явления - указаны атмосферные явления, наблюдавшиеся в срок или в последний час перед сроком; фигурными скобками обозначены явления, наблюдавшиеся между сроками (за 1-3 часа до срока); квадратными скобками обозначены град или гололедные отложения с указанием их диаметра в мм.
Облачность - указаны через наклонную черту общая и нижняя облачность в баллах и высота нижней границы облаков в метрах; квадратными скобками обозначены формы облаков: Ci - перистые, Cs - перисто-слоистые, Cc - перисто-кучевые, Ac - высококучевые, As - высокослоистые, Sc - слоисто-кучевые, Ns - слоисто-дождевые, Cu - кучевые, Cb - кучево-дождевые. Подробнее классификацию облаков см. в Атласе облаков (PDF).
T - Температура воздуха - температура, измеренная на высоте 2 м над землей.
Td - Температура точки росы - температура, при понижении до которой содержащийся в воздухе водяной пар достигнет насыщения.
f - Относительная влажность воздуха - влажноcть воздуха, измеренная на высоте 2 м над землей.
Te - Эффективная температура - температура, которую ощущает одетый по сезону человек в тени. Характеристика душности погоды. При расчете учитывается влияние влажности воздуха и скорости ветра на теплоощущения человека.
Tes - Эффективная температура на солнце - температура, которую ощущает человек, с поправкой на солнечный нагрев. Характеристика знойности погоды. Зависит от высоты солнца над горизонтом, облачности и скорости ветра. Ночью, в пасмурную погоду, а также при ветре 12 м/с и более поправка равна нулю.
P - Атмосферное давление - приведенное к уровню моря атмосферное давление.
Po - Атмосферное давление - измеренное на уровне метеостанции атмосферное давление.
Tmin - Минимальная температура - минимум температуры воздуха на высоте 2 м над землей.
Tmax - Максимальная температура - максимум температуры воздуха на высоте 2 м над землей.
R - Количество осадков - Количество выпавших осадков за период времени, мм. При наведении курсора мыши на число - период времени, за который выпало указанное количество осадков.
R24 - Количество осадков - Количество выпавших осадков за 24 часа, мм.
S - Снежный покров - Высота снежного покрова, см. При наведении курсора мыши на число - состояние снежного покрова и степень покрытия местности в баллах.